TimeCST,TemperatureF,Dew PointF,Humidity,Sea Level PressureIn,VisibilityMPH,Wind Direction,Wind SpeedMPH,Gust SpeedMPH,PrecipitationIn,Events,Conditions,WindDirDegrees,DateUTC
12:15 AM,20.3,14.5,78,29.59,10.0,Calm,Calm,-,N/A,,Overcast,0,2014-01-14 06:15:00
12:35 AM,19.8,14.7,81,29.59,10.0,Calm,Calm,-,N/A,,Overcast,0,2014-01-14 06:35:00
12:55 AM,19.0,14.9,84,29.58,10.0,Calm,Calm,-,N/A,,Overcast,0,2014-01-14 06:55:00
1:15 AM,19.4,14.9,83,29.58,10.0,Calm,Calm,-,N/A,,Overcast,0,2014-01-14 07:15:00
1:35 AM,19.4,15.1,83,29.57,10.0,Calm,Calm,-,N/A,,Overcast,0,2014-01-14 07:35:00
1:55 AM,20.3,15.4,81,29.57,10.0,Calm,Calm,-,N/A,,Overcast,0,2014-01-14 07:55:00
2:15 AM,20.3,15.8,83,29.57,10.0,Calm,Calm,-,N/A,,Overcast,0,2014-01-14 08:15:00
2:35 AM,20.1,15.6,83,29.57,10.0,Calm,Calm,-,N/A,,Overcast,0,2014-01-14 08:35:00
2:55 AM,20.7,15.8,81,29.56,10.0,Calm,Calm,-,N/A,,Overcast,0,2014-01-14 08:55:00
3:15 AM,20.5,15.8,82,29.56,10.0,Calm,Calm,-,N/A,,Overcast,0,2014-01-14 09:15:00
3:35 AM,20.7,16.0,82,29.56,7.0,Calm,Calm,-,N/A,,Overcast,0,2014-01-14 09:35:00
3:55 AM,20.7,16.7,85,29.56,4.0,Calm,Calm,-,N/A,Snow,Light Snow,0,2014-01-14 09:55:00
4:15 AM,20.5,17.2,87,29.56,1.8,Calm,Calm,-,N/A,Snow,Light Snow,0,2014-01-14 10:15:00
4:35 AM,20.3,17.6,89,29.55,2.5,Calm,Calm,-,N/A,Snow,Light Snow,0,2014-01-14 10:35:00
4:55 AM,20.3,18.0,91,29.54,2.5,Calm,Calm,-,N/A,Snow,Light Snow,0,2014-01-14 10:55:00
5:15 AM,20.3,18.0,91,29.54,3.0,Calm,Calm,-,N/A,Snow,Light Snow,0,2014-01-14 11:15:00
5:35 AM,20.3,18.0,91,29.54,5.0,ENE,4.6,-,N/A,Snow,Light Snow,60,2014-01-14 11:35:00
5:55 AM,20.7,18.0,89,29.53,4.0,ENE,4.6,-,N/A,Snow,Light Snow,60,2014-01-14 11:55:00
6:15 AM,20.8,18.1,89,29.54,2.0,Calm,Calm,-,N/A,Snow,Light Snow,0,2014-01-14 12:15:00
6:35 AM,20.8,18.3,90,29.53,3.0,NE,4.6,-,N/A,Snow,Light Snow,50,2014-01-14 12:35:00
6:55 AM,21.0,18.3,89,29.53,2.5,NE,6.9,-,0.01,Snow,Light Snow,50,2014-01-14 12:55:00
7:15 AM,21.0,18.3,89,29.53,3.0,NE,6.9,-,N/A,Snow,Light Snow,50,2014-01-14 13:15:00
7:35 AM,21.0,18.1,89,29.54,1.8,NE,5.8,-,N/A,Snow,Light Snow,50,2014-01-14 13:35:00
7:55 AM,21.0,18.1,89,29.55,1.5,NE,9.2,-,N/A,Snow,Light Snow,50,2014-01-14 13:55:00
8:15 AM,20.8,18.0,89,29.55,0.8,NE,9.2,-,0.01,Snow,Light Snow,50,2014-01-14 14:15:00
8:35 AM,20.8,17.8,88,29.56,0.8,NE,8.1,-,0.02,Snow,Light Snow,40,2014-01-14 14:35:00
8:55 AM,20.7,17.6,88,29.57,0.8,NE,6.9,-,0.02,Snow,Light Snow,40,2014-01-14 14:55:00
9:15 AM,20.7,17.6,88,29.57,0.8,NE,6.9,-,N/A,Snow,Light Snow,40,2014-01-14 15:15:00
9:35 AM,20.7,17.6,88,29.58,0.8,NNE,6.9,-,0.02,Snow,Light Snow,30,2014-01-14 15:35:00
9:55 AM,20.5,17.6,89,29.59,0.5,NNE,8.1,-,0.02,Snow,Snow,20,2014-01-14 15:55:00
10:15 AM,20.8,17.6,87,29.60,0.8,NNE,9.2,-,0.01,Snow,Light Snow,30,2014-01-14 16:15:00
10:35 AM,21.0,17.6,87,29.60,1.0,NNE,9.2,-,0.01,Snow,Light Snow,20,2014-01-14 16:35:00
10:55 AM,21.2,17.8,87,29.60,0.8,North,9.2,16.1,0.01,Snow,Light Snow,360,2014-01-14 16:55:00
11:15 AM,21.0,18.0,88,29.61,0.8,North,9.2,-,N/A,Snow,Light Snow,10,2014-01-14 17:15:00
11:35 AM,21.0,17.6,87,29.61,1.0,North,11.5,16.1,N/A,Snow,Light Snow,360,2014-01-14 17:35:00
11:55 AM,21.0,17.6,87,29.62,1.0,North,6.9,-,N/A,Snow,Light Snow,10,2014-01-14 17:55:00
12:15 PM,20.8,17.4,87,29.62,1.0,North,6.9,18.4,N/A,Snow,Light Snow,10,2014-01-14 18:15:00
12:35 PM,20.5,17.2,87,29.62,0.8,North,6.9,-,N/A,Snow,Light Snow,350,2014-01-14 18:35:00
12:55 PM,20.3,17.1,87,29.63,0.8,North,11.5,18.4,N/A,Snow,Light Snow,360,2014-01-14 18:55:00
1:15 PM,19.9,16.7,87,29.63,0.8,North,5.8,16.1,N/A,Snow,Light Snow,360,2014-01-14 19:15:00
1:35 PM,19.4,16.2,87,29.64,1.0,NNW,9.2,18.4,N/A,Snow,Light Snow,340,2014-01-14 19:35:00
1:55 PM,19.2,15.8,87,29.65,0.8,NNW,11.5,17.3,N/A,Snow,Light Snow,340,2014-01-14 19:55:00
2:15 PM,19.2,15.6,86,29.67,1.2,NNW,15.0,18.4,N/A,Snow,Light Snow,340,2014-01-14 20:15:00
2:35 PM,19.0,14.9,84,29.68,1.2,North,12.7,19.6,N/A,Snow,Light Snow,350,2014-01-14 20:35:00
2:55 PM,19.2,13.8,80,29.69,2.5,NNW,12.7,20.7,N/A,Snow,Light Snow,330,2014-01-14 20:55:00
3:15 PM,18.9,13.3,79,29.70,4.0,NNW,12.7,20.7,N/A,Snow,Light Snow,340,2014-01-14 21:15:00
3:35 PM,18.3,12.9,79,29.71,2.0,NNW,15.0,24.2,N/A,Snow,Light Snow,340,2014-01-14 21:35:00
3:55 PM,17.6,12.4,80,29.73,1.8,NNW,15.0,24.2,N/A,Snow,Light Snow,340,2014-01-14 21:55:00
4:15 PM,17.1,12.0,81,29.74,2.0,North,13.8,23.0,N/A,Snow,Light Snow,350,2014-01-14 22:15:00
4:35 PM,16.5,10.8,78,29.76,4.0,North,11.5,19.6,N/A,Snow,Light Snow,350,2014-01-14 22:35:00
4:55 PM,16.0,10.8,80,29.77,4.0,NNW,12.7,19.6,N/A,Snow,Light Snow,340,2014-01-14 22:55:00
5:15 PM,15.4,9.5,77,29.78,7.0,NNW,16.1,20.7,N/A,,Overcast,330,2014-01-14 23:15:00
5:35 PM,15.3,9.1,77,29.79,7.0,NNW,12.7,24.2,N/A,,Overcast,330,2014-01-14 23:35:00
5:55 PM,14.9,9.3,79,29.80,10.0,NNW,12.7,19.6,N/A,,Overcast,340,2014-01-14 23:55:00
6:15 PM,14.9,9.3,79,29.81,10.0,NNW,10.4,-,N/A,,Overcast,340,2014-01-15 00:15:00
6:35 PM,14.9,9.5,79,29.82,5.0,NNW,13.8,21.9,N/A,Snow,Light Snow,340,2014-01-15 00:35:00
6:55 PM,14.5,9.3,80,29.83,5.0,NNW,12.7,19.6,N/A,Snow,Light Snow,330,2014-01-15 00:55:00
7:15 PM,14.4,9.0,79,29.84,7.0,NNW,15.0,21.9,N/A,Snow,Light Snow,330,2014-01-15 01:15:00
7:35 PM,14.0,8.1,77,29.84,10.0,North,15.0,19.6,N/A,,Overcast,350,2014-01-15 01:35:00
7:55 PM,13.8,8.4,79,29.85,5.0,NNW,11.5,19.6,N/A,Snow,Light Snow,340,2014-01-15 01:55:00
8:15 PM,13.6,7.7,77,29.85,10.0,NNW,15.0,23.0,N/A,Snow,Light Snow,330,2014-01-15 02:15:00
8:35 PM,13.8,7.7,77,29.85,10.0,NNW,11.5,19.6,N/A,,Overcast,340,2014-01-15 02:35:00
8:55 PM,13.8,8.2,78,29.86,10.0,NNW,11.5,17.3,N/A,Snow,Light Snow,330,2014-01-15 02:55:00
9:15 PM,13.6,8.6,80,29.86,7.0,NNW,10.4,18.4,N/A,Snow,Light Snow,330,2014-01-15 03:15:00
9:35 PM,13.6,7.7,77,29.86,10.0,NNW,11.5,19.6,N/A,,Overcast,340,2014-01-15 03:35:00
9:55 PM,13.6,7.7,77,29.87,10.0,NW,6.9,16.1,N/A,,Overcast,320,2014-01-15 03:55:00
10:15 PM,13.3,7.7,78,29.87,10.0,NW,8.1,-,N/A,Snow,Light Snow,320,2014-01-15 04:15:00
10:35 PM,13.1,7.7,79,29.88,10.0,NW,11.5,16.1,N/A,,Overcast,310,2014-01-15 04:35:00
10:55 PM,12.9,7.7,80,29.88,10.0,NW,10.4,18.4,N/A,Snow,Light Snow,320,2014-01-15 04:55:00
11:15 PM,12.9,7.7,80,29.88,7.0,NW,12.7,16.1,N/A,Snow,Light Snow,320,2014-01-15 05:15:00
11:35 PM,12.9,7.7,80,29.88,7.0,NNW,9.2,-,N/A,Snow,Light Snow,330,2014-01-15 05:35:00
11:55 PM,12.7,7.5,80,29.87,10.0,NNW,10.4,18.4,N/A,Snow,Light Snow,330,2014-01-15 05:55:00